Theta_e
301 296 293 295 297 298 297 294 294 297 299 296 295 295 299 299 299 298 298 298 299 301 305 308 312 313 314 314 312 311 310 311 312 314 314 315 315 317 319 322 323 324 325 324
297 294 298 300 299 297 295 293 292 296 298 295 295 294 296 298 299 299 298 298 299 300 303 307 310 311 311 311 313 312 311 312 313 314 314 315 316 319 320 322 324 325 326 327
295 298 302 300 298 296 294 292 292 293 296 295 292 291 293 297 298 300 298 299 300 300 302 305 307 308 310 309 309 314 312 310 309 313 316 317 319 321 322 322 322 325 327 327
297 301 300 297 297 297 292 298 297 295 292 287 293 283 291 294 296 299 297 297 299 300 302 304 305 305 310 310 312 312 312 311 313 313 317 316 316 318 320 322 323 324 326 327
298 297 297 296 298 298 296 299 296 295 290 287 289 284 289 294 295 296 298 297 298 299 302 304 305 306 309 312 312 312 313 313 313 315 319 319 318 319 321 321 322 323 325 327
300 302 301 300 301 300 301 295 293 291 288 282 288 287 287 291 296 297 298 298 299 299 301 304 305 306 307 311 313 311 314 314 313 315 318 317 314 315 316 318 319 321 323 326
296 296 300 302 297 296 295 289 283 281 281 282 290 287 290 296 299 300 300 298 299 300 300 303 304 304 306 309 312 312 313 313 313 315 316 316 313 314 315 316 319 320 322 325
291 290 297 300 298 295 291 290 284 279 278 282 291 286 292 299 303 303 303 300 299 299 301 303 304 305 306 308 312 313 312 312 312 313 314 313 313 312 311 314 319 320 323 324
290 291 299 300 300 299 292 288 291 286 286 284 287 292 299 302 302 302 299 299 298 299 300 303 304 305 306 307 310 313 313 311 311 312 313 314 314 313 312 312 315 319 322 325
295 289 297 300 299 297 296 296 287 285 280 279 284 288 291 296 299 302 299 297 298 299 300 303 304 305 305 307 309 314 314 311 311 311 311 312 313 313 312 312 314 317 317 320
295 293 292 297 295 293 292 291 291 288 286 281 278 285 296 299 304 304 302 298 299 300 301 302 304 305 306 306 308 312 313 310 310 309 311 312 312 312 312 312 313 315 316 317
296 292 289 294 297 301 297 294 294 286 285 287 285 287 300 303 306 308 305 300 299 301 302 303 304 304 304 306 308 311 312 310 309 309 311 311 311 311 311 312 312 313 315 316
296 289 285 286 295 299 296 298 295 293 291 289 287 288 301 305 305 307 304 299 300 300 301 302 302 303 305 306 308 310 311 310 310 311 311 310 309 310 310 311 312 313 314 315
302 290 290 288 289 297 294 298 298 294 288 290 291 294 299 303 304 306 302 300 300 301 302 303 302 303 305 307 308 311 311 311 312 312 311 310 308 309 309 310 311 312 313 314
295 289 291 292 294 297 296 297 298 294 295 292 294 295 300 301 305 307 303 300 299 300 302 303 304 304 304 306 308 311 311 311 312 312 311 311 308 308 309 310 310 311 312 313
295 289 291 290 294 294 294 296 299 299 296 296 297 295 303 306 308 309 304 301 300 301 303 304 305 306 306 307 308 310 309 310 313 312 312 311 308 307 309 308 308 309 309 310
291 292 289 285 294 294 290 295 298 299 299 298 295 299 303 304 307 307 307 302 302 303 304 304 306 307 308 309 309 309 308 310 312 312 313 311 309 308 308 307 307 306 306 307
291 292 291 289 293 284 294 301 302 301 301 300 300 302 304 304 306 309 309 305 303 304 305 305 307 308 309 310 308 309 307 310 312 312 313 312 309 307 308 307 306 304 304 305
297 294 290 288 284 292 296 300 299 298 298 303 302 302 304 306 307 307 311 310 308 306 306 307 308 309 309 310 310 308 307 310 312 312 314 314 310 307 307 307 305 303 303 302
298 298 293 285 286 286 294 302 305 303 294 303 305 302 303 304 299 305 309 311 310 310 308 307 309 309 309 310 310 307 306 309 311 313 315 315 311 308 307 307 305 305 304 304
291 291 291 285 284 290 299 304 305 293 295 304 306 305 303 303 308 309 310 312 312 312 309 308 309 309 310 311 310 308 307 308 312 315 316 316 312 309 308 307 306 306 305 305
291 288 289 286 285 287 303 303 299 302 304 306 306 306 306 308 307 309 310 312 313 311 309 308 308 309 310 311 311 309 307 310 312 315 316 316 314 312 309 307 307 308 305 304
292 295 292 293 293 299 306 305 307 305 305 306 305 306 308 308 307 309 309 310 310 310 309 308 308 309 310 311 312 310 310 310 311 314 315 316 315 314 310 307 306 307 307 305
297 299 295 296 299 300 305 305 306 306 307 309 308 308 308 307 309 309 309 310 310 311 311 309 308 308 308 311 312 313 313 312 311 313 314 316 316 315 313 311 309 309 308 307
298 299 296 295 298 301 303 307 306 307 308 310 310 310 310 309 310 311 311 311 311 311 312 311 308 308 309 311 312 313 313 313 311 312 314 315 316 315 315 314 311 310 311 310
299 297 297 295 299 301 302 307 307 307 309 310 311 311 313 311 311 312 311 311 312 312 311 311 309 309 310 310 312 313 314 314 312 312 313 314 315 315 317 316 315 302 301 300
Wind_Speed
5 5 8 9 7 5 4 3 5 4 5 5 8 10 16 6 6 8 9 9 8 9 6 5 5 5 4 1 4 4 5 5 3 3 3 3 3 3 3 3 3 1 1 3
4 12 7 7 4 4 3 3 5 6 3 6 8 11 9 7 9 11 13 9 9 6 6 5 5 3 3 2 3 3 4 4 4 2 2 1 2 2 1 3 5 5 3 6
9 4 7 7 5 4 5 4 5 7 1 3 1 7 6 5 3 4 6 7 6 10 9 7 6 5 4 1 2 3 4 5 4 5 2 3 2 2 2 4 2 4 7 7
7 6 8 5 5 8 4 8 5 4 2 5 4 7 7 5 6 7 9 10 12 10 6 5 6 5 6 2 1 3 3 4 3 5 4 4 3 3 3 2 2 3 6 8
10 8 6 6 10 7 10 4 6 3 4 2 2 3 8 2 7 11 12 12 11 11 10 9 8 7 7 4 0 1 2 4 4 2 4 3 4 3 2 2 3 5 4 6
11 5 10 13 8 9 3 3 6 4 4 2 8 7 6 5 9 7 4 12 12 12 9 8 7 5 4 4 2 2 3 3 3 1 3 4 4 3 3 4 5 6 4 4
4 5 4 6 5 3 5 6 4 6 4 7 3 4 10 9 10 9 8 13 14 12 10 9 8 6 5 6 4 2 3 2 2 1 2 2 3 4 5 4 3 3 2 3
10 9 11 4 9 11 7 10 7 6 3 6 3 6 8 6 5 8 6 10 13 12 10 9 9 8 7 7 6 4 4 1 1 1 0 2 2 3 3 3 4 3 2 2
9 9 3 7 6 12 5 5 6 5 1 2 4 7 11 3 5 6 7 11 14 13 10 10 8 8 7 7 7 7 5 3 1 2 1 0 1 2 4 5 3 3 3 3
7 3 6 7 5 1 9 7 2 3 2 4 4 4 7 8 5 4 6 8 11 9 9 8 8 8 6 6 4 6 5 5 3 2 2 1 0 2 4 5 4 3 3 1
7 7 5 6 7 10 3 3 5 5 5 6 3 8 7 5 9 8 9 11 13 15 14 10 9 7 7 4 6 6 6 5 4 3 2 2 1 3 4 5 5 3 4 3
8 8 7 9 2 5 7 11 9 6 5 3 4 9 5 6 9 6 6 8 7 9 13 10 10 8 7 7 7 7 6 6 5 4 3 3 2 3 4 4 4 3 6 4
9 3 4 6 4 1 5 5 5 5 5 8 6 7 4 4 3 4 7 9 9 9 8 7 7 8 8 7 6 7 7 6 6 5 5 4 2 3 3 3 4 5 6 5
13 6 11 16 6 7 5 5 6 7 5 6 7 5 5 3 4 1 5 8 9 9 11 10 9 8 7 7 7 7 7 6 6 5 5 4 4 3 2 3 3 4 5 6
7 8 6 5 10 11 14 9 12 10 9 9 9 9 8 5 5 4 8 9 10 10 11 14 13 11 7 7 7 6 7 7 6 6 5 5 4 3 3 4 4 4 5 5
2 4 8 7 10 13 11 18 16 18 3 1 6 5 7 5 5 4 8 12 14 15 16 15 12 12 11 10 9 7 7 8 7 7 6 6 5 5 4 4 5 5 5 5
1 4 4 5 6 7 19 16 15 10 5 10 9 11 8 6 8 9 7 12 15 15 15 15 17 16 14 13 11 9 9 7 8 8 7 6 6 6 5 5 5 5 5 4
2 4 3 3 6 10 5 11 17 20 12 8 4 8 12 10 9 5 10 12 13 15 16 16 14 12 12 10 8 7 7 9 8 7 8 7 7 6 6 6 6 5 4 4
8 5 3 6 4 5 1 5 10 10 13 15 13 5 6 3 2 7 7 10 15 18 18 17 17 14 10 13 12 10 8 8 9 8 9 9 8 7 7 6 6 4 4 4
6 4 5 3 7 11 6 7 5 6 9 11 15 10 9 7 4 10 7 7 11 11 14 16 16 12 12 12 12 12 11 11 11 10 10 9 10 9 8 8 7 4 4 5
5 3 13 2 5 7 6 9 8 9 9 8 15 14 9 8 16 3 6 4 8 12 15 12 16 19 20 16 15 15 13 14 13 11 10 10 9 10 9 7 5 5 5 4
9 8 6 2 3 9 5 5 13 8 3 6 8 9 14 16 5 8 8 5 5 9 13 17 15 16 15 16 17 16 15 15 12 12 12 11 9 8 7 8 5 5 6 6
10 8 9 11 7 4 13 11 13 8 7 7 8 6 11 13 10 9 7 7 6 11 13 15 16 16 15 17 18 18 16 13 14 13 12 11 10 9 8 9 7 4 5 5
3 3 5 4 6 6 13 4 5 5 6 5 5 7 9 8 6 6 4 5 7 8 11 13 14 17 17 18 19 19 17 16 16 15 13 11 11 10 7 7 6 6 6 5
7 8 7 3 2 4 4 10 6 6 3 6 6 6 10 7 5 6 5 5 4 6 6 12 16 17 18 18 19 17 17 18 16 16 13 12 11 12 10 10 10 10 9 11
4 6 9 9 8 8 8 15 9 10 9 8 8 6 4 7 7 4 6 6 5 4 5 10 12 14 16 18 17 16 18 20 19 16 13 12 11 9 9 9 8 11 11 17
Wind_Direction
162 137 202 201 199 182 193 194 246 266 242 176 234 253 273 205 207 187 186 181 189 202 213 210 220 235 280 199 324 340 328 342 348 331 335 341 337 351 13 332 22 293 94 87
79 219 187 196 163 171 158 220 263 273 278 160 271 270 263 187 223 203 189 185 187 188 181 204 216 217 282 337 282 327 318 358 346 317 304 316 317 12 330 337 13 2 60 104
183 181 161 167 195 173 198 172 232 237 321 239 149 308 302 270 243 177 185 178 166 187 184 198 201 215 258 332 304 306 310 331 331 340 333 347 343 66 34 347 17 16 59 73
206 192 170 167 195 164 253 216 228 267 51 268 131 271 286 284 278 228 194 184 181 184 181 195 190 199 222 229 279 28 357 345 338 343 50 49 22 23 348 11 355 42 50 59
213 154 174 171 209 161 231 142 195 225 203 108 273 72 263 352 285 258 214 194 184 179 179 192 191 204 216 217 146 21 1 25 12 351 81 72 33 49 346 16 79 51 49 60
202 191 163 196 213 174 165 107 49 55 95 53 234 155 279 220 216 260 179 187 184 173 184 196 193 196 213 212 140 74 27 2 42 320 51 71 55 44 68 24 17 13 26 60
167 186 192 144 149 88 95 70 340 342 8 222 108 98 234 254 243 230 227 189 173 169 175 187 182 198 205 201 187 148 86 359 33 267 306 24 55 49 62 82 92 71 36 29
177 228 169 178 168 181 180 154 157 226 227 260 138 231 251 229 308 282 220 174 156 163 178 182 186 194 196 207 194 180 137 130 6 134 170 31 67 58 50 57 92 72 58 92
170 228 136 165 155 145 178 154 198 134 156 63 242 288 311 268 8 19 104 141 168 168 177 183 187 194 196 209 199 187 173 151 199 182 217 43 326 70 68 65 78 76 81 83
195 175 207 200 92 19 162 162 112 16 190 228 278 285 241 301 303 173 163 181 174 161 176 183 189 194 205 215 176 180 189 171 178 177 166 219 305 28 57 73 89 136 88 59
132 132 269 107 178 168 124 161 58 122 146 182 234 258 218 223 250 231 194 192 182 177 181 182 193 192 204 199 180 181 184 177 172 185 156 144 37 61 55 68 73 80 70 71
185 150 191 199 201 171 207 188 168 157 230 209 182 261 242 262 271 208 167 188 179 196 181 175 189 178 188 205 180 180 181 178 187 179 150 145 111 70 66 69 72 68 91 57
171 201 144 329 3 331 167 177 147 119 93 189 181 262 175 255 268 202 171 169 168 173 180 166 179 183 190 200 189 172 180 188 167 164 149 145 130 112 100 74 58 66 90 74
152 156 187 219 207 159 183 179 183 153 137 184 217 210 262 184 59 286 152 163 166 181 187 180 186 191 197 191 190 176 181 175 164 162 156 159 165 173 138 112 82 85 92 97
139 204 180 198 201 190 210 194 179 190 193 172 214 207 228 178 180 208 172 147 158 168 198 196 190 191 193 192 197 188 175 164 164 160 167 182 162 149 124 117 111 99 90 102
7 222 173 217 206 194 214 216 193 208 149 102 154 232 206 173 163 222 162 166 182 187 196 208 198 182 185 195 195 191 173 169 158 161 178 165 155 145 132 121 124 116 105 97
339 135 100 228 181 124 247 206 192 203 190 168 196 214 155 179 195 214 207 182 193 192 187 203 197 193 190 186 187 192 179 151 162 162 161 164 160 148 147 137 129 130 138 131
212 107 103 158 110 209 281 203 185 198 204 194 178 178 182 199 211 193 191 179 194 188 190 193 202 196 190 178 174 170 157 164 163 162 160 157 161 155 153 150 153 146 141 150
178 135 163 150 210 298 239 154 144 158 227 197 203 153 188 149 62 278 179 185 199 195 189 195 193 196 176 180 173 164 156 163 159 168 169 166 164 155 156 163 163 149 138 155
139 197 164 174 176 218 191 199 137 75 249 196 195 191 163 130 184 235 157 190 200 185 193 184 184 177 174 183 170 162 167 167 180 175 181 171 166 162 168 170 169 158 164 177
143 133 208 172 228 277 248 149 132 150 232 180 186 196 152 185 216 206 151 180 196 184 180 175 171 180 188 172 169 177 173 182 188 176 169 169 170 173 174 162 157 161 167 158
160 149 189 118 188 246 168 111 159 199 211 191 184 182 184 210 205 204 188 209 201 175 171 172 175 183 177 175 173 185 183 186 174 169 169 174 173 177 166 167 165 166 165 180
192 183 185 186 203 228 181 172 208 164 160 194 178 172 198 205 204 210 210 204 187 199 175 177 173 174 178 180 183 187 191 174 166 169 172 176 175 179 166 168 170 163 175 185
240 156 150 127 208 203 192 219 139 158 159 143 168 174 176 207 197 223 239 198 183 206 186 176 169 178 185 185 189 194 177 176 171 174 177 175 175 178 170 180 178 182 183 197
200 150 173 229 315 44 288 214 162 153 188 145 144 175 204 172 212 225 232 239 235 223 202 180 184 185 191 186 194 184 179 173 183 175 179 181 182 181 182 190 185 192 210 200
212 176 182 221 174 160 205 212 184 165 184 178 162 169 189 185 214 194 241 241 206 207 193 194 202 193 188 189 189 186 178 180 178 182 181 187 185 180 186 189 201 231 230 207